Beatrice, NE

12:24 AM CST on January 20, 2017 (GMT -0600)
Beatrice Municipal

Weather History for KBIE - September, 2013

Change the Weather History Date:

Sunday, September 1, 2013

  Actual Average Record
Temperature  
Mean Temperature 74 °F -  
Max Temperature 84 °F 85 °F 102 °F (1975)
Min Temperature 64 °F 62 °F 44 °F (1949)
Cooling Degree Days 9    
Growing Degree Days 24 (Base 50)    
Moisture  
Dew Point 66 °F    
Average Humidity 75    
Maximum Humidity 100    
Minimum Humidity 37    
Precipitation  
Precipitation 0.65 in - - ()
Sea Level Pressure  
Sea Level Pressure 29.93 in    
Wind  
Wind Speed 7 mph (NNE)    
Max Wind Speed 34 mph    
Max Gust Speed 45 mph    
Visibility 10 miles    
Events Rain , Thunderstorm    
Averages and records for this station are not official NWS values.
T = Trace of Precipitation, MM = Missing Value Source: NWS Daily Summary

Daily Weather History Graph

Daily Weather History Graph

Search for Another Location

Airport or City:

Trip Planner

Search our weather history database for the weather conditions in past years. The results will help you decide how hot, cold, wet, or windy it might be!

Date:

Astronomy

Sep. 01, 2013 Rise Set
Actual Time 6:54 AM CDT 7:58 PM CDT
Civil Twilight 6:26 AM CDT 8:26 PM CDT
Nautical Twilight 5:53 AM CDT 8:59 PM CDT
Astronomical Twilight 5:18 AM CDT 9:33 PM CDT
Moon 3:17 AM CDT (9/1) 5:36 PM CDT (9/1)
Length of Visible Light 13h 59m
Length of Day
13h 03m
Waning Crescent, 13% of the Moon is Illuminated
Sep 1
Waning Crescent
Sep 5
New
Sep 12
First Quarter
Sep 19
Full
Sep 26
Last Quarter

Hourly Weather History & Observations

Time (CDT) Temp. Heat Index Dew Point Humidity Pressure Visibility Wind Dir Wind Speed Gust Speed Precip Events Conditions
12:15 AM 77.5 °F - 73.9 °F 89% 29.81 in 10.0 mi ESE 3.5 mph - N/A   Clear
12:35 AM 77.0 °F - 73.8 °F 90% 29.81 in 10.0 mi Calm Calm - N/A   Clear
12:55 AM 76.5 °F - 73.8 °F 91% 29.81 in 10.0 mi Calm Calm - N/A   Clear
1:15 AM 77.4 °F - 73.8 °F 89% 29.82 in 10.0 mi Calm Calm - N/A   Clear
1:35 AM 76.5 °F - 73.8 °F 91% 29.81 in 10.0 mi South 4.6 mph - N/A   Clear
1:55 AM 76.6 °F - 73.6 °F 90% 29.81 in 10.0 mi South 3.5 mph - N/A   Clear
2:15 AM 77.4 °F - 73.8 °F 89% 29.80 in 10.0 mi SSE 4.6 mph - N/A   Clear
2:35 AM 76.5 °F - 73.6 °F 91% 29.78 in 10.0 mi SSE 4.6 mph - N/A   Clear
2:55 AM 77.0 °F - 73.6 °F 89% 29.78 in 10.0 mi SSE 4.6 mph - N/A   Clear
3:15 AM 77.0 °F - 73.8 °F 90% 29.79 in 10.0 mi Calm Calm - N/A Thunderstorm Clear
3:35 AM 76.5 °F - 73.6 °F 91% 29.77 in 10.0 mi SE 3.5 mph - N/A Thunderstorm Clear
3:55 AM 77.0 °F - 74.1 °F 91% 29.76 in 10.0 mi SSE 3.5 mph - N/A Thunderstorm Thunderstorm
4:15 AM 74.3 °F - 72.9 °F 95% 29.85 in 1.8 mi WNW 34.5 mph 44.9 mph 0.31 in Rain , Thunderstorm Heavy Thunderstorms and Rain
4:35 AM 73.0 °F - 71.1 °F 93% 29.85 in 7.0 mi West 10.4 mph - 0.49 in Rain , Thunderstorm Light Thunderstorms and Rain
4:55 AM 72.9 °F - 71.6 °F 96% 29.87 in 3.0 mi East 8.1 mph - 0.63 in Rain , Thunderstorm Heavy Thunderstorms and Rain
5:15 AM 72.0 °F - 72.0 °F 100% 29.86 in 10.0 mi ENE 3.5 mph - 0.01 in Rain , Thunderstorm Rain
5:35 AM 72.0 °F - 72.0 °F 100% 29.87 in 10.0 mi SW 5.8 mph - 0.02 in Thunderstorm Scattered Clouds
5:55 AM 71.8 °F - 71.8 °F 100% 29.89 in 10.0 mi WNW 5.8 mph - 0.02 in   Mostly Cloudy
6:15 AM 72.1 °F - 72.1 °F 100% 29.89 in 10.0 mi Calm Calm - N/A   Mostly Cloudy
6:35 AM 72.1 °F - 72.1 °F 100% 29.87 in 10.0 mi NE 4.6 mph - N/A Thunderstorm Scattered Clouds
6:55 AM 72.5 °F - 72.1 °F 99% 29.89 in 10.0 mi North 3.5 mph - N/A   Clear
7:15 AM 72.5 °F - 72.5 °F 100% 29.90 in 10.0 mi NNE 11.5 mph - N/A   Scattered Clouds
7:35 AM 72.5 °F - 72.5 °F 100% 29.91 in 10.0 mi North 9.2 mph - N/A   Scattered Clouds
7:55 AM 72.7 °F - 72.5 °F 99% 29.91 in 10.0 mi North 11.5 mph - N/A   Overcast
8:15 AM 72.9 °F - 72.7 °F 99% 29.93 in 10.0 mi NE 11.5 mph - N/A   Overcast
8:35 AM 72.3 °F - 71.4 °F 97% 29.94 in 10.0 mi NE 6.9 mph - N/A   Overcast
8:55 AM 71.8 °F - 70.9 °F 97% 29.95 in 10.0 mi NE 8.1 mph - N/A   Overcast
9:15 AM 72.9 °F - 71.1 °F 94% 29.96 in 10.0 mi NNE 12.7 mph 17.3 mph N/A   Overcast
9:35 AM 73.6 °F - 70.9 °F 91% 29.96 in 10.0 mi NNE 8.1 mph - N/A   Scattered Clouds
9:55 AM 75.0 °F - 71.2 °F 88% 29.97 in 10.0 mi NNE 10.4 mph - N/A   Clear
10:15 AM 75.6 °F - 71.4 °F 87% 29.97 in 10.0 mi North 10.4 mph - N/A   Scattered Clouds
10:35 AM 76.8 °F - 71.8 °F 84% 29.97 in 10.0 mi North 15.0 mph - N/A   Scattered Clouds
10:55 AM 77.9 °F - 71.6 °F 81% 29.97 in 10.0 mi North 16.1 mph 19.6 mph N/A   Scattered Clouds
11:15 AM 78.8 °F - 72.0 °F 79% 29.97 in 10.0 mi North 16.1 mph - N/A   Clear
11:35 AM 79.7 °F - 71.4 °F 76% 29.97 in 10.0 mi North 12.7 mph 17.3 mph N/A   Clear
11:55 AM 80.6 °F 84.2 °F 70.9 °F 72% 29.97 in 10.0 mi North 12.7 mph 17.3 mph N/A   Clear
12:15 PM 81.9 °F 82.5 °F 60.8 °F 49% 29.97 in 10.0 mi North 16.1 mph 21.9 mph N/A   Clear
12:35 PM 81.9 °F 81.9 °F 58.8 °F 45% 29.96 in 10.0 mi North 13.8 mph - N/A   Clear
12:55 PM 82.0 °F 82.0 °F 57.9 °F 44% 29.96 in 10.0 mi North 13.8 mph 21.9 mph N/A   Clear
1:15 PM 82.8 °F 82.7 °F 58.6 °F 44% 29.96 in 10.0 mi North 13.8 mph 20.7 mph N/A   Clear
1:35 PM 82.6 °F 82.5 °F 58.6 °F 44% 29.96 in 10.0 mi North 16.1 mph 21.9 mph N/A   Clear
1:55 PM 83.5 °F 83.1 °F 58.3 °F 42% 29.96 in 10.0 mi North 16.1 mph - N/A   Clear
2:15 PM 83.5 °F 83.1 °F 57.9 °F 42% 29.96 in 10.0 mi North 15.0 mph - N/A   Clear
2:35 PM 84.2 °F 83.2 °F 56.3 °F 38% 29.97 in 10.0 mi North 16.1 mph 19.6 mph N/A   Clear
2:55 PM 84.4 °F 83.5 °F 56.7 °F 39% 29.96 in 10.0 mi NNE 15.0 mph - N/A   Clear
3:15 PM 84.4 °F 83.4 °F 56.1 °F 38% 29.96 in 10.0 mi North 11.5 mph 17.3 mph N/A   Clear
3:35 PM 84.2 °F 83.0 °F 55.2 °F 37% 29.96 in 10.0 mi North 11.5 mph 21.9 mph N/A   Clear
3:55 PM 84.4 °F 83.5 °F 57.2 °F 39% 29.96 in 10.0 mi North 12.7 mph 16.1 mph N/A   Clear
4:15 PM 84.9 °F 84.4 °F 59.0 °F 41% 29.95 in 10.0 mi North 12.7 mph - N/A   Clear
4:35 PM 84.9 °F 84.4 °F 58.5 °F 41% 29.96 in 10.0 mi North 11.5 mph - N/A   Scattered Clouds
4:55 PM 84.7 °F 84.4 °F 59.0 °F 42% 29.96 in 10.0 mi NNW 11.5 mph - N/A   Clear
5:15 PM 84.2 °F 84.0 °F 59.4 °F 43% 29.96 in 10.0 mi NNW 12.7 mph - N/A   Clear
5:35 PM 83.7 °F 83.3 °F 58.3 °F 42% 29.96 in 10.0 mi NNW 12.7 mph - N/A   Clear
5:55 PM 82.9 °F 82.8 °F 59.2 °F 44% 29.96 in 10.0 mi North 10.4 mph - N/A   Clear
6:15 PM 82.4 °F 82.5 °F 59.4 °F 45% 29.96 in 10.0 mi NNW 8.1 mph - N/A   Clear
6:35 PM 81.5 °F 81.8 °F 59.5 °F 47% 29.96 in 10.0 mi North 8.1 mph - N/A   Clear
6:55 PM 79.7 °F - 62.1 °F 55% 29.96 in 10.0 mi NNW 8.1 mph - N/A   Clear
7:15 PM 77.5 °F - 63.5 °F 62% 29.96 in 10.0 mi NNW 5.8 mph - N/A   Clear
7:35 PM 75.2 °F - 64.0 °F 68% 29.96 in 10.0 mi North 6.9 mph - N/A   Clear
7:55 PM 72.3 °F - 64.4 °F 76% 29.97 in 10.0 mi North 6.9 mph - N/A   Clear
8:15 PM 72.9 °F - 61.3 °F 67% 29.97 in 10.0 mi NNE 6.9 mph - N/A   Clear
8:35 PM 71.6 °F - 62.8 °F 74% 29.98 in 10.0 mi NNE 6.9 mph - N/A   Clear
8:55 PM 71.1 °F - 62.8 °F 75% 29.99 in 10.0 mi NNE 6.9 mph - N/A   Clear
9:15 PM 71.4 °F - 62.4 °F 73% 30.00 in 10.0 mi NNE 6.9 mph - N/A   Clear
9:35 PM 69.1 °F - 63.7 °F 83% 30.01 in 10.0 mi NNE 5.8 mph - N/A   Clear
9:55 PM 68.5 °F - 63.5 °F 84% 30.01 in 10.0 mi NNE 6.9 mph - N/A   Clear
10:15 PM 68.2 °F - 63.5 °F 85% 30.02 in 10.0 mi NNE 4.6 mph - N/A   Clear
10:35 PM 67.6 °F - 63.5 °F 87% 30.02 in 10.0 mi NNE 5.8 mph - N/A   Clear
10:55 PM 66.4 °F - 62.8 °F 88% 30.03 in 10.0 mi North 3.5 mph - N/A   Clear
11:15 PM 64.6 °F - 62.6 °F 93% 30.03 in 10.0 mi Calm Calm - N/A   Clear
11:35 PM 64.4 °F - 62.1 °F 92% 30.03 in 10.0 mi Calm Calm - N/A   Clear
11:55 PM 64.4 °F - 61.7 °F 91% 30.03 in 10.0 mi Calm Calm - N/A   Clear